Regional Weather Roundup
Issued by NWS

Home | Current Version | Previous Version | Graphics & Text | Print | Product List | Glossary On
Versions: 1 2 3 4 5 6 7 8 9 10 11 12 13 14 15 16 17 18 19 20 21 22 23 24 25 26 27 28 29 30 31 32 33 34 35 36 37 38 39 40 41 42 43 44 45 46 47 48 49 50
096
ASUS43 KDTX 180310
RWRMI
MICHIGAN HOURLY REGIONAL WEATHER ROUNDUP
NATIONAL WEATHER SERVICE DETROIT/PONTIAC MI
1000 PM EST WED JAN 17 2018

NOTE: "FAIR" INDICATES FEW OR NO CLOUDS BELOW 12,000 FEET WITH NO
SIGNIFICANT WEATHER AND/OR OBSTRUCTION TO VISIBILITY.

MIZ047>049-052>055-059>063-066>070-074>076-081>083-180400-
SOUTHEAST LOWER MICHIGAN

CITY           SKY/WX    TMP DP  RH WIND       PRES   REMARKS
ADRIAN         FAIR      15   7  70 W13G20    30.26F WCI   1
ALMA           FAIR      24  15  69 SW14G22   30.09F WCI  12
ANN ARBOR      FAIR      16   8  71 S14       30.19F WCI   2
BAD AXE        FAIR      22  14  69 SW18G29   30.02F WCI   8
CARO           FAIR      22  14  70 SW17G26   30.05F WCI   8
DETROIT CITY   FAIR      19   9  65 SW17G25   30.18F WCI   4
DETROIT        FAIR      17   9  70 SW21      30.22F WCI   0
FLINT          FAIR      21  10  62 SW17G25   30.12F WCI   7
GROSSE ILE     FAIR      17  10  71 SW12G17   30.22F WCI   4
HILLSDALE      FAIR      14   5  67 SW9G16    30.20F WCI   2
HOWELL         FAIR      19  10  69 SW16G22   30.13F WCI   4

CITY           SKY/WX    TMP DP  RH WIND       PRES   REMARKS
JACKSON        FAIR      16   7  67 SW18      30.18F WCI   0
LAMBERTVILLE   FAIR      15   8  73 SW10G20   30.28S WCI   3
LANSING        FAIR      19  10  68 SW20G25   30.14F WCI   3
LAPEER         FAIR      22  12  66 SW16G23   30.09F WCI   8
MASON          FAIR      19   7  58 SW10G22   30.15F WCI   8
MONROE         FAIR      16   7  68 SW15      30.24F WCI   1
MT. CLEMENS    CLOUDY    20  10  65 SW17G29   30.12F WCI   6
PONTIAC        MOCLDY    19  10  68 SW17      30.12F WCI   4
PORT HOPE        N/A     23  14  68 SW15G29   29.98F WCI  10
PORT HURON     FAIR      19  12  73 SW12      30.13F WCI   7
TRI CITIES     FAIR      24  17  74 SW23G32   30.05F WCI   9
MIDLAND        FAIR      26  16  67 SW14G24   30.04F WCI  14
TROY           FAIR      21  11  65 SW16G25   30.17F WCI   7
SAGINAW HB     FAIR      23  16  74 SW22G30   30.06F WCI   8
$$
MIZ043>046-050>051-056>058-064>065-071>073-077>080-180400-
SOUTHWEST LOWER MICHIGAN

CITY           SKY/WX    TMP DP  RH WIND       PRES   REMARKS
BATTLE CREEK   FAIR      16   8  71 SW22G28   30.18F WCI  -2
BENTON HARBOR  FAIR      20  12  71 SW22G30   30.26F WCI   3
BIG RAPIDS     FAIR      23  13  68 W13G18    30.04F WCI  11
COLDWATER      FAIR      14   8  78 SW15G21   30.23F WCI  -1
FREMONT        FAIR      24  13  62 SW18G28   30.10F WCI  10
HOLLAND        FAIR      25  16  68 SW28G37   30.18F WCI   9
GRAND RAPIDS   FAIR      22  15  75 SW23G30   30.14F WCI   6
IONIA          FAIR      22  16  77 SW21G26   30.12F WCI   6
KALAMAZOO      FAIR      17   7  64 SW18G25   30.21F WCI   1
LUDINGTON      FAIR      25  19  77 SW21G31   30.07S HAZE    WCI  10
MARSHALL       FAIR      15   8  73 SW12G20   30.19F WCI   2
MOUNT PLEASANT FAIR      26  15  64 SW17G25   30.04F WCI  12
MUSKEGON       MOCLDY    27  16  63 SW25G36   30.15F WCI  12
SOUTH HAVEN    FAIR      23  17  75 SW18G28   30.22F WCI   9
$$
MIZ016>042-180400-
NORTHERN LOWER MICHIGAN

CITY           SKY/WX    TMP DP  RH WIND       PRES   REMARKS
ALPENA         FAIR      23  12  62 W9        29.91R WCI  13
BEAVER ISLAND  FAIR      28  17  63 SW26G41   29.88F WCI  13
BELLAIRE       FAIR      25  18  75 SW10G22   29.97R WCI  15
CADILLAC       FAIR      19  13  77 SW22G29   29.94F WCI   3
CHARLEVOIX     FAIR      28  19  69 SW17G31   29.94F WCI  15
FRANKFORT      FAIR      29  19  66 SW16G25   30.01R WCI  17
GAYLORD        FAIR      20  14  77 SW21G30   29.88S WCI   4
GRAYLING       FAIR      21  11  65 SW10      29.92F WCI  10
HARBOR SPRINGS FAIR      27  18  69 SW18G28   29.89F WCI  13
HOUGHTON LAKE  FAIR      21  12  68 SW15G24   29.95F WCI   8
MANISTEE       FAIR      24  17  74 SW10G20   30.04F WCI  14
OSCODA         FAIR      22  13  66 SW21G26   29.93F WCI   7
PELLSTON       FAIR      27  18  69 SW16G24   29.88F WCI  15
ROGERS CITY    FAIR      23  12  62 W8        29.90R WCI  14
TRAVERSE CITY  FAIR      26  16  65 W12G30    29.97R WCI  16
$$
MIZ007>008-015-180400-
EASTERN UPPER MICHIGAN

CITY           SKY/WX    TMP DP  RH WIND       PRES   REMARKS
KINROSS        FAIR      25  17  72 W14G22    29.84S WCI  13
MACKINAC ISLAN FAIR      27  21  77 SW21G32   29.86F WCI  14
NEWBERRY       FAIR      19   9  65 SW13      29.83F WCI   6
S. S. MARIE    FAIR      24  14  65 W10       29.83S WCI  14
MUNISING         N/A     19  10  68 SW13      29.84S WCI   6
$$
MIZ004>006-011>014-085-180400-
CENTRAL UPPER MICHIGAN

CITY           SKY/WX    TMP DP  RH WIND       PRES   REMARKS
MANISTIQUE     FAIR      22  11  62 SW14G21   29.87F WCI   9
ESCANABA       FAIR      14   7  73 S6        29.89S WCI   5
SAWYER-GWINN   CLEAR     21   9  58 W5        29.81R WCI  15
$$
MIZ001>003-009>011-084-180400-
WESTERN UPPER MICHIGAN

CITY           SKY/WX    TMP DP  RH WIND       PRES   REMARKS
IRON MOUNTAIN  FAIR      24   9  52 W9        29.84R WCI  14
HOUGHTON       FAIR      27  15  61 W22G33    29.79R WCI  13
COPPER HARBOR    N/A     31  20  63 NW10G23   29.80R WCI  22
IRONWOOD       FAIR      21  11  65 SW13G23   29.88S WCI   9
$$

ABBREVIATIONS USED IN REMARKS
   TC - TEMPERATURE IN CELSIUS
  WCI - WIND CHILL INDEX
   HX - HEAT INDEX
  VSB - VISIBILITY





USA.gov is the U.S. government's official web portal to all federal, state and local government web resources and services.